This demonstration page uses our WeatherBlox Daily Observations layout. Learn more.

38.89511, -77.03637

Hourly Observations for August 17, 2015

Temp ( °F °C ) Dew Point ( °F °C ) Humidity (%) Winds ( mph kmh ) Pressure ( in mb ) Visibility ( mi km ) Precip ( " mm )
12:52 am 00:52 Mostly Clear 75 24 66 19 74 74 SSW 7 11 30.12 1020 10 16.09344 0 0
1:52 am 01:52 Partly Cloudy 75 24 66 19 74 74 S 7 11 30.12 1020 10 16.09344 0 0
2:52 am 02:52 Mostly Clear 73 23 66 19 78 78 SSW 3 6 30.12 1020 10 16.09344 0 0
3:52 am 03:52 Mostly Clear 73 23 66 19 78 78 SSW 3 6 30.12 1020 10 16.09344 0 0
4:52 am 04:52 Partly Cloudy 73 23 68 20 83 83 S 5 7 30.12 1020 10 16.09344 0 0
5:52 am 05:52 Mostly Clear 72 22 66 19 83 83 SSW 7 11 30.12 1020 10 16.09344 0 0
6:52 am 06:52 Mostly Sunny 73 23 66 19 78 78 SSW 5 7 30.12 1020 10 16.09344 0 0
7:52 am 07:52 Sunny 75 24 66 19 74 74 SSW 6 9 30.15 1021 10 16.09344 0 0
8:52 am 08:52 Sunny 77 25 70 21 79 79 SSE 7 11 30.15 1021 10 16.09344 0 0
9:52 am 09:52 Sunny 81 27 70 21 70 70 S 6 9 30.12 1020 10 16.09344 0 0
10:52 am 10:52 Sunny 84 29 72 22 66 66 S 7 11 30.12 1020 10 16.09344 0 0
11:52 am 11:52 Sunny 88 31 72 22 59 59 SSE 6 9 30.12 1020 10 16.09344 0 0
12:52 pm 12:52 Mostly Sunny 91 33 70 21 49 49 S 8 13 30.09 1019 10 16.09344 0 0
1:52 pm 13:52 Partly Cloudy 95 35 70 21 44 44 SSE 9 15 30.09 1019 10 16.09344 0 0
2:52 pm 14:52 Partly Cloudy 93 34 70 21 47 47 S 9 15 30.06 1018 10 16.09344 0 0
3:52 pm 15:52 Mostly Sunny 93 34 70 21 47 47 S 10 17 30.03 1017 10 16.09344 0 0
4:52 pm 16:52 Mostly Sunny 93 34 70 21 47 47 S 13 20 30.03 1017 10 16.09344 0 0
5:52 pm 17:52 Mostly Sunny 91 33 70 21 49 49 S 13 20 30.03 1017 10 16.09344 0 0
6:52 pm 18:52 Mostly Sunny 90 32 66 19 46 46 S 10 17 30.03 1017 10 16.09344 0 0
7:52 pm 19:52 Partly Cloudy 88 31 70 21 55 55 S 12 19 30.03 1017 10 16.09344 0 0
8:52 pm 20:52 Partly Cloudy 84 29 70 21 62 62 S 12 19 30.03 1017 10 16.09344 0 0
9:52 pm 21:52 Mostly Clear 82 28 66 19 58 58 S 8 13 30.06 1018 10 16.09344 0 0
10:52 pm 22:52 Partly Cloudy 81 27 68 20 66 66 S 12 19 30.06 1018 10 16.09344 0 0
11:52 pm 23:52 Partly Cloudy 79 26 70 21 74 74 SSW 8 13 30.06 1018 10 16.09344 0 0

Powered by AerisWeather